CAPE
0 0 12 490 412 327 135 103 0 0 0 0 0 0 9 327 75 80 259 670 740 697 1036 1461 1714 1335 1657 1825 1327 1777 2244 2402 2330 2306 2362 2355 2167 1878 2122 2168 1586 1988 1981 2035 2059 2058 1996 1597 997
0 0 171 320 163 170 209 0 0 0 0 0 0 36 207 435 6 108 561 801 603 960 1274 545 2156 1789 2035 1983 1716 1670 1987 1993 2098 2270 2380 2266 2255 2368 2652 2234 2019 2020 2203 2058 1593 1459 877 1269 1370
0 16 746 13 69 144 187 0 0 0 0 0 0 518 808 30 20 340 727 867 856 1039 470 1585 1862 1980 1867 1816 1986 1921 1838 1901 2094 2163 2275 2340 2177 2338 2420 2224 2077 2059 2024 1742 1956 2099 2000 1796 1615
7 515 1 29 182 182 139 11 0 0 0 11 288 678 343 8 271 563 912 947 1099 618 1090 1830 1789 1675 1584 2010 1999 1948 1904 2030 2183 2237 2191 2177 2295 2321 2193 2288 2176 2062 1964 1849 1912 2020 1994 1618 1945
236 164 1 1 135 203 208 41 0 6 13 494 586 645 40 251 454 782 860 908 582 542 1068 1596 1870 1834 1994 1946 1884 1796 1836 1938 2114 2168 2246 2270 2239 2168 2332 2396 2249 2226 2274 2244 2317 2369 2342 2407 2035
326 445 20 157 49 131 292 259 0 0 2 250 312 102 79 378 613 792 721 476 297 586 853 1279 1755 1847 1752 1729 1880 1895 2043 2007 2100 2138 2165 2028 1957 2136 2256 2388 2408 2145 2285 2335 2329 2266 2116 1844 1634
392 566 533 66 28 63 214 522 232 2 11 14 129 100 222 355 681 668 629 178 325 403 947 1054 1282 1572 1658 1689 1843 1895 1954 2131 2226 2050 2020 2084 2112 2203 2341 2504 2327 2174 2049 2107 2139 2172 2287 1458 1126
372 559 146 44 39 52 231 480 351 303 437 303 204 114 167 501 647 688 526 86 215 691 1010 927 1112 1177 1166 1334 1692 1741 1952 1906 1992 2287 2046 2735 2073 2095 2152 2684 2662 2105 2030 2248 1979 2146 2285 1965 1367
317 719 214 209 8 254 323 508 544 398 402 259 237 0 156 451 659 632 277 82 305 633 752 485 567 1185 1475 1427 1582 1705 1916 2035 2186 2220 2093 2114 1877 1963 1704 2327 2186 1945 2001 2140 2156 2155 2311 2438 2096
461 735 278 489 65 486 408 525 452 377 390 274 0 61 223 372 504 365 139 112 202 542 516 217 574 635 803 399 1446 1426 1453 1667 1551 1898 2066 2183 2139 2098 1654 2143 1957 1906 2049 2138 2191 2234 1896 2054 1755
524 432 609 280 192 376 440 479 282 393 387 298 114 171 259 330 359 165 100 124 152 509 303 212 728 1116 760 683 654 1110 1220 1216 1708 2023 1896 1723 1382 1254 1178 1436 1576 1625 1877 1644 1843 1745 1670 1851 1696
266 479 442 269 454 332 432 352 206 246 100 158 90 152 223 277 214 65 28 106 235 470 192 263 680 1183 1071 854 570 669 855 1062 1045 1275 1411 1489 1227 1284 1372 1391 1609 1544 1554 1890 1930 1920 2125 2062 2161
422 520 321 417 553 203 300 127 96 125 44 92 1 121 185 181 103 32 0 70 229 251 63 274 712 1359 1394 972 796 875 964 704 617 1171 1461 1314 1457 1805 1679 1997 1664 1514 1477 1801 1977 1765 1775 1663 1732
463 376 366 441 417 138 123 78 103 107 64 15 42 113 85 72 50 17 0 12 171 87 25 366 758 1274 1225 1292 1269 1082 719 778 901 1209 1737 1681 1491 1793 1710 1896 1764 1515 1430 1688 1815 1911 1474 1273 1296
466 456 403 660 326 187 135 120 214 84 45 53 62 49 48 44 0 0 0 130 130 49 77 529 751 1011 1224 1419 1409 1087 946 900 1035 1328 1695 1637 1652 2163 1828 1734 1574 1597 2085 2170 1841 1560 1385 1004 933
660 633 560 471 569 337 53 207 102 80 45 13 29 81 92 94 25 0 0 89 100 69 230 456 322 748 1043 1244 1341 1220 1305 1167 1097 1145 1382 1749 2084 2156 1933 1537 1566 1972 1758 1625 1451 1282 1089 1088 1034
283 544 527 581 300 287 117 101 548 90 61 36 67 104 149 95 41 52 50 133 184 329 428 479 519 656 977 1424 1131 1206 1575 1417 1365 1414 1331 2018 1976 2131 1699 1581 2070 2173 1505 1552 1311 1427 1516 1353 1231
120 477 787 774 405 39 165 0 371 134 100 106 84 124 166 133 102 166 206 298 258 445 694 713 880 1108 1208 1395 1513 1124 1235 1466 1280 1420 1515 1868 1821 2187 1846 1804 2064 2042 1681 1532 1593 2048 1662 1572 1461
77 58 494 614 573 130 145 108 188 168 159 119 112 148 153 173 210 279 259 343 440 390 683 966 1114 1480 1688 1564 1094 1086 1165 1339 1122 1327 1880 1873 1880 1774 2120 1589 2042 1962 1924 2252 2250 1631 1949 1110 1180
69 344 373 546 712 356 122 182 227 260 184 300 93 112 143 188 253 333 389 408 530 751 631 878 1232 1744 1548 1374 1396 1023 1060 1198 1273 1339 1774 1741 1746 1990 2019 1835 1751 1932 1826 2218 2456 2501 1413 1106 1809
8 230 133 540 322 209 197 101 60 66 171 248 188 156 210 288 357 430 478 477 555 874 1119 1148 1382 1612 1608 1215 1343 1524 1847 1560 2104 1663 1681 1604 1699 1780 1990 1946 1708 1979 2237 1744 2114 2111 2450 1104 1744
1 16 247 709 335 155 62 23 0 0 99 290 272 339 205 399 473 555 539 620 610 766 1161 1298 1502 1709 1630 1610 1177 1217 2102 1444 2096 1343 1370 1577 1674 1482 1596 2049 1926 2227 1656 1909 2260 2051 2063 2766 1564
2 2 39 209 283 213 178 87 14 1 9 496 719 373 232 272 357 524 652 671 697 703 1023 1259 1562 1735 1277 1638 1260 1050 738 1819 745 1209 2003 1759 1913 1745 1473 2040 2046 2364 1803 2417 2260 2445 2606 1791 1929
2 21 5 164 256 263 135 43 0 51 70 124 692 705 486 335 359 449 610 722 876 735 921 1104 1579 1812 1548 1487 1570 1464 1072 833 1943 1885 1461 1486 1564 1877 1727 1835 2121 2202 1928 2062 1992 2473 2470 2455 2241
71 15 0 13 106 94 244 103 21 7 304 239 647 722 701 426 372 455 645 749 983 936 958 1040 1496 1707 1513 1410 1294 1440 1301 1127 1007 1291 1941 1174 1977 1634 1918 1976 2084 1865 2224 1914 1723 1909 2169 2056 1842
67 7 21 0 119 67 16 157 137 371 357 407 727 682 877 824 432 376 637 421 676 1044 963 666 1276 1643 1580 1426 1582 1607 1609 682 1141 1062 913 2129 1632 1141 1621 1330 1391 1729 1784 1975 2155 1748 1465 1656 1754
0 16 1 31 34 83 68 47 317 327 489 729 855 685 771 1059 741 488 710 900 1027 793 778 507 501 945 1487 1338 1439 1492 1664 1492 888 1009 1060 2793 1919 1541 1363 1081 1101 1160 1442 1837 2007 1346 1951 2105 2004
0 0 45 3 93 48 119 102 44 573 647 619 935 907 822 1024 1069 731 739 893 632 336 296 279 797 953 1117 1063 1207 1213 750 736 686 1092 1261 1378 1420 1930 1406 1329 1184 1192 1307 1785 2262 1405 1657 2133 1837
0 0 0 37 47 82 87 124 625 712 884 740 611 563 762 1048 1007 785 899 1079 1012 438 175 176 266 377 1085 1069 1198 1078 926 705 734 729 901 944 1372 1775 1961 1542 1137 1312 1134 1231 1755 1648 1556 1924 1724
0 0 0 0 43 38 85 325 480 791 923 778 416 366 312 388 412 435 802 869 820 847 321 129 173 200 411 1188 1079 738 906 826 729 781 845 1190 1085 1793 1617 1561 1630 1614 1328 1545 1565 1497 1297 1666 1451
CIN
0 0 -27 -21 0 -3 0 0 0 0 0 0 0 0 -1 0 -2 -4 -1 0 0 0 0 0 0 0 0 -1 -4 0 0 0 0 0 0 0 0 0 0 0 0 0 0 0 0 0 0 0 -1
0 0 -35 -14 0 -1 -1 0 0 0 0 0 0 -6 0 0 -46 -38 0 0 0 0 0 -4 -1 0 0 0 0 0 0 0 0 0 0 0 0 0 0 0 0 -1 0 0 0 0 -6 0 0
0 -91 0 -1 -12 0 0 0 0 0 0 0 0 0 0 -7 -34 0 0 0 0 0 0 0 0 0 0 0 0 0 0 0 0 0 0 0 0 0 0 0 0 0 -2 -2 -1 0 0 0 0
-38 -1 -1 -14 0 0 0 -1 0 0 0 -16 0 0 -13 -3 -4 0 0 0 0 0 0 -1 -1 -1 -5 0 0 0 0 0 0 0 0 0 0 0 0 0 -1 0 0 -2 0 0 0 0 0
-1 -7 0 -5 0 0 0 -8 0 -16 -13 0 0 0 -27 -9 -2 0 0 0 0 0 0 0 0 0 0 0 0 0 0 0 0 0 0 0 0 -1 0 0 -1 -1 0 0 0 0 0 0 0
-2 -11 -1 -2 -4 0 0 0 0 -1 -4 -6 0 -29 -37 -2 0 0 0 0 0 0 0 0 0 0 0 0 0 0 0 0 0 0 -1 -3 -7 0 0 0 0 0 0 0 0 0 0 0 0
-1 0 0 -15 -18 -2 0 0 0 -13 -17 -14 -8 -9 -20 0 0 0 0 -7 0 0 0 0 0 -2 0 0 0 0 0 0 0 -1 -1 -1 0 0 0 0 0 0 0 -2 -4 -2 0 -10 -17
-1 -1 -2 -8 -25 -9 -2 0 0 0 0 -5 -2 -7 -31 0 0 0 0 -21 -2 0 0 0 0 0 0 0 0 0 0 0 0 0 0 0 0 -2 -2 -3 0 0 -4 -2 -11 -6 -2 -4 -15
-22 0 -4 -13 -83 -22 -21 0 0 0 -2 -3 -12 0 -58 -3 0 0 -2 -20 -2 0 0 0 0 0 0 0 0 0 0 -1 -6 -1 -7 -12 0 0 -1 -4 -1 -6 -15 -14 -13 -12 -8 -3 -6
0 0 -13 0 -42 -13 -18 0 -5 0 0 -5 0 -44 -28 -9 0 -1 -9 -7 -2 0 0 0 0 0 0 0 0 0 0 0 0 0 0 0 0 -1 0 -1 -13 -23 -23 -24 -21 -18 -20 -15 0
0 -1 0 -1 -16 -11 -12 0 -7 0 0 -8 -30 -33 -23 -7 -1 -6 -7 -1 -1 0 0 -2 0 0 0 0 0 0 0 0 0 0 0 0 0 0 0 0 0 -2 -13 -2 -6 -8 0 -1 0
-2 0 0 0 -2 -5 -3 0 -14 -1 0 -1 -30 -41 -27 -7 -3 -11 -9 -4 -2 0 -7 -2 0 0 0 0 0 0 0 0 0 0 0 0 0 0 0 0 0 0 0 -1 0 0 -4 -1 0
-1 0 -4 -1 0 -31 -2 -2 -12 0 -11 -17 -2 -16 -11 -1 -2 -4 0 -8 -4 -4 -21 -2 0 0 0 0 0 0 0 0 -5 0 0 0 0 0 0 0 0 0 0 0 0 0 -1 -1 0
-2 -8 -1 0 -1 -29 -4 -2 -5 -4 -21 -22 -13 -2 -4 -7 -15 -21 0 -12 -3 -8 -13 -1 0 0 0 0 0 0 0 0 0 0 0 0 0 0 0 0 0 0 0 0 0 0 0 0 0
-15 -2 0 0 0 -1 -7 0 -1 -8 -15 -2 0 0 -3 -7 0 0 0 -10 -6 -3 -3 0 0 0 0 0 0 0 0 0 0 0 -1 -1 0 0 0 0 0 0 0 0 -1 0 0 0 0
-3 0 0 0 0 -1 -19 0 -11 -19 -5 0 0 0 0 0 -10 0 0 0 -4 -3 -6 0 0 0 0 0 0 0 0 0 0 0 0 0 -1 0 0 0 0 0 0 0 0 0 0 0 0
-23 0 0 0 -1 -12 -17 -5 0 -34 -27 0 0 0 0 0 -1 -6 -5 0 -2 0 -1 0 0 0 0 0 0 0 0 0 0 0 0 0 0 0 0 0 0 0 0 0 0 0 -1 0 0
-45 0 0 0 0 -75 0 0 0 -25 -24 0 0 0 0 0 0 0 0 0 0 0 0 0 0 0 0 0 0 0 0 0 0 0 0 0 0 0 0 0 0 0 0 0 0 -1 0 -1 0
-19 -53 0 0 -3 -111 0 -1 0 0 -2 -2 0 0 0 0 0 -1 0 0 0 0 0 0 0 0 0 0 0 0 0 0 0 0 0 0 0 -3 0 0 0 0 0 -1 0 -1 -1 0 -2
-1 0 0 0 0 0 0 0 0 -10 -6 0 0 0 0 0 0 -3 0 0 0 0 0 0 0 0 0 0 0 0 0 0 0 0 0 0 0 0 0 0 0 -1 0 0 0 -4 0 0 -3
-23 0 -1 0 -33 -13 -2 -9 -19 -9 -16 -3 -1 0 0 -21 -8 -1 0 0 -1 0 0 0 0 0 0 0 0 -1 0 -1 0 0 0 0 0 0 0 -1 0 -3 -2 0 -1 -2 -6 0 -2
-9 -12 -1 -1 -3 -9 -16 -6 0 0 -1 -17 -11 -3 -3 -3 0 0 0 0 0 0 0 0 0 0 0 0 0 -1 0 0 -1 0 0 0 0 0 0 0 0 0 0 0 -1 -1 -1 -5 0
0 -1 0 0 0 -19 -12 0 -23 -5 0 -1 0 0 -2 -2 0 0 0 0 0 -1 -2 0 0 0 0 0 0 0 -1 0 0 0 -1 0 0 0 0 0 0 0 0 0 0 -1 0 -1 0
-9 -7 -6 0 0 0 -12 -6 0 -15 -26 -24 -2 0 0 -1 -1 0 0 0 0 0 0 0 -3 -2 0 0 0 0 0 0 -1 -1 0 0 0 0 0 0 0 0 0 0 0 0 -1 -1 -2
-8 -1 0 0 0 0 0 -9 -2 -22 -40 -38 -52 -26 0 0 -1 0 -1 0 0 0 -5 -5 -8 -3 -1 0 0 0 0 0 0 0 -1 0 -2 -1 0 0 0 -1 -1 0 0 -4 0 -3 0
-5 -4 0 0 0 -1 -19 0 -1 -21 -92 -102 -25 -47 -6 -1 0 -6 -48 -93 -75 -4 -17 -91 -27 -1 0 0 0 0 0 0 0 0 0 -1 -1 0 0 0 0 0 0 0 0 0 0 -1 -1
0 -1 0 0 -1 -1 -1 -4 -137 -158 -144 -99 -69 -71 -39 -16 -1 -2 -1 -16 -34 -82 -69 -89 -66 -4 0 0 0 0 0 0 0 -3 -3 -1 -2 -1 0 0 0 0 0 0 0 0 0 0 0
0 0 0 0 0 0 0 -7 -9 -101 -110 -221 -94 -74 -42 -21 -6 -9 0 -19 -103 -140 -149 -84 -3 -25 -4 -4 0 -1 0 -1 0 0 0 0 0 -3 0 0 0 0 0 0 -1 0 0 0 0
0 0 0 0 0 0 0 -1 -38 -24 -108 -194 -212 -185 -134 -42 -32 -47 -25 -2 -19 -99 -130 -114 -54 -26 -1 -7 -7 -17 0 0 0 0 0 0 0 -1 -3 0 -3 0 0 0 0 -1 0 0 0
0 0 0 0 0 0 0 -5 -151 -102 -124 -152 -211 -250 -244 -197 -161 -139 -66 -46 -50 -38 -81 -106 -43 -30 -42 -1 -3 -20 0 0 0 0 0 0 0 -1 -6 -5 -7 -2 0 0 0 0 0 0 0
Wind_Speed
nan nan nan 10 4 6 6 7 nan nan nan nan nan nan nan 18 nan nan 10 9 9 15 13 16 12 10 8 3 4 6 10 11 9 8 7 6 7 10 10 12 9 10 8 10 9 10 10 11 13
nan nan 10 4 8 7 9 nan nan nan nan nan nan nan 13 9 nan 6 9 12 16 12 14 13 15 13 8 3 3 6 9 8 6 6 5 6 9 11 13 11 10 9 10 9 9 10 10 11 11
nan nan 13 nan nan 13 9 nan nan nan nan nan nan 16 16 nan nan 7 9 13 12 10 8 9 15 16 12 6 4 6 5 6 7 6 6 6 8 11 11 8 9 10 11 9 10 7 8 10 13
nan 14 nan nan 10 18 9 nan nan nan nan nan 8 8 8 nan 8 7 12 14 10 12 8 12 14 13 14 10 6 6 6 7 7 5 3 2 3 3 0 0 4 6 10 10 11 12 11 11 13
8 4 nan nan 13 9 10 nan nan nan nan 4 19 9 nan 9 5 9 11 11 8 10 9 10 10 10 11 11 9 8 9 8 8 5 5 6 5 5 6 6 5 6 7 7 13 11 14 14 14
5 3 nan 9 nan 8 7 6 nan nan nan 7 5 1 nan 7 9 8 10 9 10 5 5 8 8 9 9 9 10 8 8 7 7 6 7 6 5 5 6 5 3 5 6 6 7 10 10 12 13
8 6 5 nan nan nan 4 7 7 nan nan nan 9 4 5 12 5 8 8 10 9 7 3 8 9 8 6 8 9 8 8 7 6 4 8 6 6 3 4 2 1 3 5 6 11 7 7 10 12
9 5 8 nan nan nan 3 6 7 6 8 9 6 10 6 8 8 8 8 nan 9 7 4 5 6 9 10 8 8 8 7 8 5 7 7 8 5 4 4 5 1 3 4 5 8 4 6 9 12
9 6 7 7 nan 10 3 5 6 13 5 10 11 nan 9 7 10 11 9 nan 10 10 9 8 7 6 10 9 8 9 7 6 7 8 10 17 6 6 8 4 5 4 5 6 8 5 7 6 9
11 7 6 17 nan 6 3 4 8 6 9 8 nan nan 14 10 11 11 11 10 10 10 12 5 9 9 7 9 10 10 15 11 11 9 10 7 5 7 1 1 4 7 6 10 9 7 12 17 14
8 10 7 4 7 3 2 4 6 5 6 5 6 12 14 10 9 8 9 9 7 10 8 10 6 5 9 10 12 14 15 14 12 10 10 7 7 9 7 12 13 13 23 14 13 13 13 13 19
12 8 9 3 8 10 5 6 3 5 16 6 nan 6 9 10 11 nan nan 8 6 8 7 8 9 7 7 10 10 11 11 14 13 9 9 9 10 10 12 13 13 16 15 14 16 12 15 16 19
9 10 2 5 9 18 11 7 nan 12 nan nan nan 10 6 4 5 nan nan nan 4 8 nan 6 8 7 7 10 8 7 10 11 7 10 9 11 9 11 13 15 14 15 14 13 13 13 17 18 20
17 7 7 11 17 15 11 nan 11 8 nan nan nan 9 nan nan nan nan nan nan 6 nan nan 4 8 8 9 6 8 9 10 9 11 10 8 10 11 13 12 13 13 13 13 12 14 17 18 23 22
15 13 12 18 13 11 18 12 19 nan nan nan nan nan nan nan nan nan nan 3 5 nan nan 6 6 6 8 9 10 8 9 8 9 8 10 10 11 11 14 13 13 12 11 12 13 16 19 19 20
15 8 11 9 14 20 nan 10 16 nan nan nan nan nan nan nan nan nan nan nan 4 nan 7 7 7 7 8 6 11 8 8 10 12 11 11 11 8 8 11 12 11 13 15 13 13 17 17 20 19
20 9 8 10 9 21 25 18 12 nan nan nan nan 5 4 nan nan nan nan 1 4 3 5 6 5 7 7 6 9 11 6 10 10 11 12 9 9 6 6 7 7 13 13 13 13 12 20 18 19
20 16 12 11 17 nan 14 nan 16 18 13 0 nan 4 4 5 4 4 2 3 4 3 2 4 6 5 6 6 8 8 8 8 9 8 8 9 7 5 9 5 6 11 9 9 11 16 15 18 19
nan nan 13 17 26 19 11 6 18 13 11 10 1 2 2 2 4 4 2 3 4 2 1 4 5 4 8 8 7 5 7 7 8 8 6 8 8 6 7 4 5 10 7 10 9 10 12 11 15
nan 2 20 33 25 17 18 13 14 3 15 12 nan 2 3 2 4 3 2 2 3 3 1 2 4 2 6 6 9 8 6 6 7 6 6 6 6 6 5 6 4 7 3 7 8 11 11 12 14
nan 15 25 28 24 24 20 19 nan nan 23 15 6 1 5 3 2 2 2 4 4 3 0 1 2 0 4 5 5 7 6 4 7 5 5 3 4 3 5 3 6 3 8 2 6 7 12 10 12
nan nan 29 32 20 23 nan nan nan nan nan 21 13 12 5 10 4 2 2 2 3 3 3 3 2 2 1 1 3 4 5 7 10 5 3 1 5 4 3 4 2 4 5 3 3 5 10 14 12
nan nan nan 22 25 36 18 nan nan nan nan 18 10 9 11 8 5 4 3 3 1 5 4 5 6 4 4 3 4 1 4 10 5 5 2 3 2 3 3 3 5 3 3 3 5 3 9 8 13
nan nan nan 23 25 22 24 nan nan nan nan 25 17 11 10 9 6 1 1 1 1 5 6 8 7 5 5 4 2 4 5 2 5 6 1 1 3 3 2 3 3 5 8 5 3 4 4 10 12
nan nan nan nan 16 nan 22 11 nan nan 4 12 9 7 9 2 2 3 1 3 4 5 7 9 8 6 5 5 4 3 3 6 7 6 8 4 6 5 9 4 5 4 4 6 8 6 6 6 8
nan nan nan nan 11 nan nan 17 19 14 7 7 4 17 14 7 5 3 10 5 12 5 7 11 6 5 6 5 5 5 5 5 7 6 8 5 8 5 10 7 6 5 5 5 5 5 5 9 6
nan nan nan nan nan nan nan nan 18 19 15 10 9 13 11 11 8 5 14 8 12 19 25 15 13 9 2 5 6 5 8 8 9 10 11 12 7 10 6 6 6 6 5 5 7 4 6 9 5
nan nan nan nan nan nan 18 17 nan 17 17 18 10 14 13 10 9 11 14 17 22 22 29 27 16 15 10 5 6 8 10 9 11 10 8 13 13 8 11 7 6 7 5 5 6 8 7 7 7
nan nan nan nan nan nan nan 17 35 26 21 21 21 22 26 21 21 20 22 23 23 28 25 26 23 17 15 8 8 10 9 11 14 13 11 12 13 11 7 7 6 7 5 6 6 7 8 7 8
nan nan nan nan nan nan nan 26 30 27 23 22 22 23 23 28 27 22 21 29 30 32 28 27 23 23 21 9 10 14 8 12 13 15 14 14 13 12 13 13 10 10 6 6 6 7 8 7 8
Wind_Direction
nan nan nan 41 98 134 196 182 nan nan nan nan nan nan nan 140 nan nan 6 48 26 33 22 34 44 35 38 72 169 183 189 193 199 198 208 225 258 264 260 249 253 242 242 235 229 235 232 221 217
nan nan 12 338 158 235 195 nan nan nan nan nan nan nan 114 155 nan 354 28 25 33 35 34 35 49 39 46 77 152 177 193 198 199 206 211 220 240 245 249 257 257 243 236 231 234 230 219 208 197
nan nan 343 nan nan 202 215 nan nan nan nan nan nan 146 138 nan nan 85 0 24 35 49 44 33 46 51 48 64 122 152 173 177 177 184 197 212 237 248 251 247 247 230 222 223 212 206 208 192 190
nan 21 nan nan 166 174 198 nan nan nan nan nan 84 134 132 nan 97 51 28 27 31 45 30 35 45 57 61 65 104 126 123 144 137 140 139 178 259 236 34 225 217 214 211 218 204 165 168 175 186
37 23 nan nan 165 181 206 nan nan nan nan 110 115 126 nan 113 65 8 31 46 33 46 37 33 52 54 64 78 91 106 119 126 117 99 84 97 110 92 91 108 125 153 179 151 164 167 186 193 185
57 310 nan 74 nan 190 168 139 nan nan nan 145 152 283 nan 79 21 29 37 49 56 52 46 40 61 58 67 74 79 91 106 111 106 109 105 97 88 83 65 71 122 159 187 190 164 180 177 174 177
89 19 4 nan nan nan 162 123 125 nan nan nan 116 133 134 47 29 37 45 57 68 54 52 60 37 48 57 75 74 95 100 93 80 68 99 65 56 72 80 79 131 173 193 179 176 148 157 170 168
122 6 326 nan nan nan 122 93 136 115 177 183 135 129 73 21 25 41 48 nan 64 60 50 85 72 86 59 45 67 74 74 72 73 80 67 61 45 37 39 54 52 246 197 182 178 149 153 166 169
90 93 18 117 nan 151 83 57 121 167 180 160 159 nan 333 2 8 30 40 nan 56 59 61 60 55 72 69 70 73 58 65 66 48 50 57 52 64 55 32 193 37 63 178 159 172 174 126 149 148
117 90 85 129 nan 152 32 170 172 148 202 197 nan nan 320 10 22 19 37 39 47 48 54 79 72 77 101 98 73 79 63 90 92 80 71 87 87 98 208 101 43 63 117 140 132 118 91 100 132
157 132 139 153 201 173 240 232 170 161 171 234 263 321 324 14 28 20 38 45 22 44 51 43 66 91 84 86 85 86 84 81 84 78 84 83 68 73 80 82 70 70 81 87 96 94 111 129 136
147 156 120 181 253 247 218 197 189 141 192 224 nan 312 321 19 28 nan nan 45 14 35 42 27 39 71 77 77 98 96 86 84 88 95 79 77 85 89 86 94 88 81 98 96 108 114 116 116 116
148 179 157 300 269 225 207 190 nan 194 nan nan nan 305 328 42 29 nan nan nan 20 31 nan 38 37 60 76 87 92 110 84 90 87 80 95 96 96 97 91 89 89 91 87 102 110 116 120 114 122
184 184 276 290 270 239 207 nan 215 209 nan nan nan 286 nan nan nan nan nan nan 22 nan nan 32 48 51 54 82 84 95 96 92 89 91 103 106 107 106 96 91 93 101 105 115 115 120 122 125 123
140 254 260 271 273 254 236 217 215 nan nan nan nan nan nan nan nan nan nan 355 3 nan nan 25 55 54 47 57 71 97 83 84 86 93 99 105 96 111 108 112 105 107 102 101 108 104 112 124 124
160 266 265 270 258 214 nan 242 213 nan nan nan nan nan nan nan nan nan nan nan 311 nan 12 37 56 57 56 66 84 100 112 107 98 99 92 99 96 99 93 96 104 117 108 110 121 127 134 137 134
171 194 227 246 201 214 203 181 231 nan nan nan nan 242 210 nan nan nan nan 281 291 312 3 28 56 54 67 69 86 94 115 114 116 108 106 105 107 112 106 109 108 99 111 120 117 127 136 144 146
199 173 243 249 248 nan 233 nan 193 215 157 185 nan 228 210 235 215 237 250 254 286 284 359 26 60 59 75 90 99 101 92 107 124 131 126 106 124 116 111 132 118 109 115 120 136 132 139 142 151
nan nan 198 243 261 282 266 260 195 213 166 124 317 160 160 222 227 254 188 250 277 300 2 56 51 68 92 100 101 100 95 105 114 130 121 106 104 104 113 122 107 126 129 156 134 109 132 145 156
nan 91 240 237 272 261 287 284 267 198 171 132 nan 339 37 65 302 266 232 234 293 294 48 93 95 46 100 100 109 128 113 100 113 119 121 124 110 102 106 123 112 150 182 152 153 144 131 160 164
nan 232 255 268 250 233 270 270 nan nan 156 158 126 123 97 63 110 225 215 190 213 275 333 323 89 144 80 123 128 140 145 141 99 109 92 112 125 137 156 123 132 120 125 125 127 157 154 178 174
nan nan 235 259 253 237 nan nan nan nan nan 149 123 98 131 115 114 249 170 196 167 230 262 264 278 269 202 60 136 118 139 148 126 120 145 172 107 136 173 179 166 121 131 170 121 161 160 147 182
nan nan nan 250 250 257 262 nan nan nan nan 141 124 77 79 86 65 10 355 349 191 232 232 253 258 252 260 264 133 140 108 175 103 102 227 175 249 125 112 204 211 198 129 217 178 154 172 182 180
nan nan nan 229 248 250 274 nan nan nan nan 140 114 80 81 60 71 9 281 27 336 266 239 247 257 248 251 240 205 149 179 201 182 137 280 321 288 287 204 193 212 223 224 239 208 201 214 191 186
nan nan nan nan 231 nan 273 263 nan nan 359 64 42 62 55 338 1 318 301 227 290 286 265 251 262 264 260 250 237 195 194 184 184 190 166 203 215 215 281 253 216 243 218 225 227 243 233 216 201
nan nan nan nan 225 nan nan 235 246 261 252 230 287 342 10 5 257 255 272 248 207 248 240 241 216 285 279 269 250 239 236 242 217 209 227 185 263 275 269 290 282 260 248 235 242 260 217 243 215
nan nan nan nan nan nan nan nan 233 234 224 239 322 340 344 319 306 280 258 236 231 237 248 247 228 238 257 273 249 248 234 208 212 234 222 254 219 264 288 296 284 275 267 260 254 228 246 225 227
nan nan nan nan nan nan 257 263 nan 235 245 242 252 308 300 282 271 259 256 246 244 248 255 240 228 229 233 155 236 248 257 238 224 234 243 224 227 232 264 281 286 282 278 256 248 249 266 249 234
nan nan nan nan nan nan nan 299 229 236 247 254 242 230 224 235 248 245 240 240 253 251 247 261 249 237 239 214 241 226 245 242 238 230 232 245 229 220 233 250 275 260 269 288 284 238 216 246 240
nan nan nan nan nan nan nan 239 252 232 238 242 241 239 239 231 232 243 254 246 247 256 253 246 266 226 231 235 266 257 258 260 249 246 235 231 237 228 225 240 254 257 268 263 279 285 258 266 255